TimeAEST,TemperatureF,Dew PointF,Humidity,Sea Level PressureIn,VisibilityMPH,Wind Direction,Wind SpeedMPH,Gust SpeedMPH,PrecipitationIn,Events,Conditions,WindDirDegrees,DateUTC
12:00 AM,76,72,83,29.83,,South,12.7,,,,,180,2013-03-08 14:00:00
12:00 AM,75.2,71.6,89,29.83,6.2,South,12.7,-,N/A,,Partly Cloudy,180,2013-03-08 14:00:00
12:30 AM,77.0,69.8,78,29.80,6.2,South,10.4,-,N/A,,Partly Cloudy,180,2013-03-08 14:30:00
1:00 AM,77,67,65,29.81,,South,9.2,,,,,170,2013-03-08 15:00:00
1:00 AM,77.0,68.0,74,29.80,6.2,South,9.2,-,N/A,,Partly Cloudy,170,2013-03-08 15:00:00
1:30 AM,75.2,68.0,78,29.80,6.2,SSE,10.4,-,N/A,,Partly Cloudy,160,2013-03-08 15:30:00
2:00 AM,75.2,69.8,83,29.77,6.2,SSE,10.4,-,N/A,,Partly Cloudy,160,2013-03-08 16:00:00
3:00 AM,74,70,83,29.77,,SE,9.2,,,,,140,2013-03-08 17:00:00
3:00 AM,73.4,69.8,88,29.77,6.2,SE,9.2,-,N/A,,Partly Cloudy,140,2013-03-08 17:00:00
3:30 AM,75.2,69.8,83,29.77,5.6,SE,9.2,-,N/A,Rain,Light Rain Showers,140,2013-03-08 17:30:00
4:00 AM,76,69,75,29.77,,South,11.5,,,,,170,2013-03-08 18:00:00
4:00 AM,75.2,69.8,83,29.77,6.2,South,11.5,-,N/A,,Scattered Clouds,170,2013-03-08 18:00:00
5:00 AM,75.2,69.8,83,29.77,6.2,South,10.4,-,N/A,,Scattered Clouds,170,2013-03-08 19:00:00
5:30 AM,75.2,69.8,83,29.77,6.2,SSE,6.9,-,N/A,Rain,Light Rain Showers,160,2013-03-08 19:30:00
6:00 AM,75,71,82,29.79,9,SSE,10.4,,,Rain,Light Rain Showers,150,2013-03-08 20:00:00
6:00 AM,75.2,69.8,83,29.77,6.2,SSE,10.4,-,N/A,,Mostly Cloudy,150,2013-03-08 20:00:00
6:30 AM,75.2,69.8,83,29.77,6.2,South,10.4,-,N/A,,Mostly Cloudy,170,2013-03-08 20:30:00
7:00 AM,76,71,78,29.80,,SSE,10.4,,,,,150,2013-03-08 21:00:00
7:00 AM,75.2,69.8,83,29.80,6.2,SSE,10.4,-,N/A,,Scattered Clouds,150,2013-03-08 21:00:00
7:30 AM,77.0,71.6,83,29.80,6.2,South,8.1,-,N/A,,Scattered Clouds,170,2013-03-08 21:30:00
8:00 AM,77.0,69.8,78,29.80,6.2,South,10.4,-,N/A,,Mostly Cloudy,180,2013-03-08 22:00:00
8:30 AM,78.8,71.6,78,29.80,6.2,South,11.5,-,N/A,,Scattered Clouds,170,2013-03-08 22:30:00
9:00 AM,78,72,76,29.83,6,SSE,15.0,,,,Mostly Cloudy,160,2013-03-08 23:00:00
9:00 AM,77.0,71.6,83,29.83,6.2,SSE,15.0,-,N/A,,Scattered Clouds,160,2013-03-08 23:00:00
9:30 AM,80.6,71.6,74,29.83,6.2,South,11.5,-,N/A,,Scattered Clouds,170,2013-03-08 23:30:00
10:00 AM,82,72,66,29.83,,South,11.5,,,,,170,2013-03-09 00:00:00
10:00 AM,82.4,71.6,70,29.83,6.2,South,11.5,-,N/A,,Scattered Clouds,170,2013-03-09 00:00:00
10:30 AM,82.4,73.4,74,29.83,6.2,South,12.7,-,N/A,,Scattered Clouds,180,2013-03-09 00:30:00
11:00 AM,80.6,73.4,79,29.83,6.2,South,13.8,-,N/A,,Mostly Cloudy,180,2013-03-09 01:00:00
11:30 AM,80.6,71.6,74,29.83,6.2,SE,17.3,-,N/A,,Mostly Cloudy,140,2013-03-09 01:30:00
12:00 PM,82,72,64,29.81,12,South,10.4,,,Rain,Light Rain Showers,170,2013-03-09 02:00:00
12:00 PM,82.4,71.6,70,29.80,6.2,South,10.4,-,N/A,,Mostly Cloudy,170,2013-03-09 02:00:00
12:30 PM,82.4,71.6,70,29.80,6.2,South,8.1,-,N/A,,Mostly Cloudy,190,2013-03-09 02:30:00
1:00 PM,83,72,63,29.80,,South,8.1,,,,,180,2013-03-09 03:00:00
1:00 PM,84.2,73.4,70,29.80,6.2,South,8.1,-,N/A,,Mostly Cloudy,180,2013-03-09 03:00:00
1:21 PM,80.6,73.4,79,29.80,3.1,SE,16.1,27.6,N/A,Rain,Rain Showers,140,2013-03-09 03:21:00
1:49 PM,80.6,73.4,79,29.77,6.2,South,8.1,-,N/A,,Overcast,180,2013-03-09 03:49:00
2:00 PM,82.4,75.2,79,29.77,6.2,South,9.2,-,N/A,,Mostly Cloudy,170,2013-03-09 04:00:00
2:30 PM,84.2,73.4,70,29.77,6.2,SSE,11.5,-,N/A,,Scattered Clouds,160,2013-03-09 04:30:00
3:00 PM,85,72,56,29.76,16,SE,15.0,,,,Mostly Cloudy,140,2013-03-09 05:00:00
3:00 PM,86.0,71.6,62,29.74,6.2,SE,15.0,-,N/A,,Scattered Clouds,140,2013-03-09 05:00:00
3:30 PM,86.0,71.6,62,29.74,6.2,ESE,17.3,-,N/A,,Scattered Clouds,110,2013-03-09 05:30:00
4:00 PM,83,71,58,29.77,,SE,15.0,,,,,130,2013-03-09 06:00:00
4:00 PM,82.4,69.8,66,29.74,6.2,SE,15.0,-,N/A,,Scattered Clouds,130,2013-03-09 06:00:00
4:30 PM,84.2,69.8,62,29.74,6.2,SE,16.1,-,N/A,,Scattered Clouds,140,2013-03-09 06:30:00
5:00 PM,82.4,69.8,66,29.74,6.2,SE,16.1,-,N/A,,Mostly Cloudy,140,2013-03-09 07:00:00
5:30 PM,82.4,69.8,66,29.74,6.2,SSE,16.1,-,N/A,,Mostly Cloudy,150,2013-03-09 07:30:00
6:00 PM,82,71,62,29.76,19,SSE,13.8,,,,Partly Cloudy,150,2013-03-09 08:00:00
6:00 PM,82.4,71.6,70,29.74,6.2,SSE,13.8,-,N/A,,Mostly Cloudy,150,2013-03-09 08:00:00
6:30 PM,80.6,71.6,74,29.77,6.2,SSW,4.6,-,N/A,,Mostly Cloudy,210,2013-03-09 08:30:00
7:00 PM,79,72,73,29.79,,South,5.8,,,,,180,2013-03-09 09:00:00
7:00 PM,78.8,71.6,78,29.77,6.2,South,5.8,-,N/A,,Mostly Cloudy,180,2013-03-09 09:00:00
7:30 PM,78.8,71.6,78,29.80,6.2,South,4.6,-,N/A,,Scattered Clouds,170,2013-03-09 09:30:00
8:00 PM,78.8,69.8,74,29.80,6.2,South,6.9,-,N/A,,Scattered Clouds,180,2013-03-09 10:00:00
8:30 PM,78.8,69.8,74,29.80,6.2,South,8.1,-,N/A,,Partly Cloudy,170,2013-03-09 10:30:00
9:00 PM,78,72,75,29.84,12,SSE,8.1,,,Rain,Light Rain Showers,160,2013-03-09 11:00:00
9:00 PM,78.8,71.6,78,29.83,6.2,SSE,8.1,-,N/A,Rain,Light Rain Showers,160,2013-03-09 11:00:00
9:30 PM,77.0,71.6,83,29.83,6.2,SSE,8.1,-,N/A,,Scattered Clouds,160,2013-03-09 11:30:00
10:00 PM,78,71,73,29.86,,South,9.2,,,,,170,2013-03-09 12:00:00
10:00 PM,78.8,71.6,78,29.83,6.2,South,9.2,-,N/A,,Scattered Clouds,170,2013-03-09 12:00:00
10:30 PM,78.8,71.6,78,29.83,6.2,South,10.4,-,N/A,,Partly Cloudy,170,2013-03-09 12:30:00
11:00 PM,77.0,71.6,83,29.83,6.2,SSE,10.4,-,N/A,,Partly Cloudy,160,2013-03-09 13:00:00
11:30 PM,75.2,71.6,89,29.83,6.2,South,11.5,-,N/A,Rain,Light Rain Showers,170,2013-03-09 13:30:00